{"data":{"norad_id":63239,"intl_designator":"2025-052AF","name":"TEVEL2-8","alt_names":[],"object_type":"PAYLOAD","status":"ACTIVE","operator":null,"country":"ISRA","launch_date":"2025-03-15","launch_site_code":"AFWTR","launch_vehicle":null,"mission":null,"orbit_class":"UNKNOWN","rcs_meters":null,"size_class":null,"mass_kg":null,"dimensions":null,"purposes":["comms"],"wikipedia_slug":null,"has_3d_model":false,"image_url":null,"decayed_at":null,"tle_current":{"epoch":"2026-05-25T03:17:35.724192Z","epoch_age_seconds":73315,"freshness":"FRESH","line1":"1 63239U 25052AF  26145.13721903  .00014408  00000+0  48619-3 0  9998","line2":"2 63239  97.3969  40.4213 0005047 206.9307 153.1673 15.30790295 66497","mean_motion":15.30790295,"eccentricity":0.0005047,"inclination_deg":97.3969,"raan_deg":40.4213,"arg_perigee_deg":206.9307,"mean_anomaly_deg":153.1673,"bstar":0.00048619,"rev_number":6649,"period_min":94.069057316567,"perigee_km":469.99512381674,"apogee_km":476.91111888523,"semimajor_km":6851.590121351,"source":"CELESTRAK","updated_at":"2026-05-25T13:38:23.298503Z"}}}